Showing default

DRAGON ENDURANCE 4, 63204

Orbit data source: Space-Track

DRAGON ENDURANCE 4, 63204 is a payload satellite owned by SpaceX (US) in LEO that was launched on Fri, 14 Mar 2025 UTC via an FALCON 9 launch vehicle from the Air Force Eastern Test Range (AFETR). Payload-class satellites include a variety of spacecraft equipped with specific instruments for various scientific and technological missions. These include communications satellites like Starlink; space stations such as the ISS; scientific satellites like the Hubble; Earth observation satellites from companies like Planet Labs, Umbra, and HawkEye 360; GPS; miniature CubeSats for education and research; and military/defense satellites.

Loading next visibility...
Identifier
63204, 2025-049A
Orbit
LEO
Last TLE update
18 hours ago
Origin
Manufacturer
SpaceX
Mission
Operational spacecraft
Bus & Motor
DRAGON CM, Unknown motor
Mass
~13,055 kg wet, ~9,500 kg dry
Launch date (UTC)
2025-03-14 (2 months ago)
Launch vehicle
FALCON 9
Launch site
Air Force Eastern Test Range (AFETR)
Object type
Payload
Rocket body
Debris
Shape & HBR
Unknown
Radar Cross Section
RCS unknown

Expand to show TLE details & history

TLE from 18 hours ago
0 DRAGON ENDURANCE 4
1 63204U 25049A   25128.54292963  .00008516  00000-0  16025-3 0  9990
2 63204  51.6344 143.4433 0002308  90.1375 269.9878 15.49412850  8006
Epoch: 2025-05-08T13:01Z
Definitive object data (Epoch: 2025-05-08T13:01:49.12Z)
Latitude
-0°
Longitude
81.37671°
Altitude
419.184 km
Speed
7.661 km/s
True Right ascension
09h 33m 46s
True Declination
0° 00' 00"
Sunlit
Object was in daylight at TLE epoch
Visualization TLE readout
Latitude
28.905°
Longitude
-128.0259°
Altitude
418.741 km
Speed
7.665 km/s
Apparent Right ascension
22h 41m 56s
Apparent Declination
-7° 08' 04"
Sunlit
Object is in daylight
Visualization observer readout
Local Sidereal Time
14:48:56
Azimuth
76.734° E
Elevation
-26.097°
Doppler factor
1
Orbital elements
Apogee altitude
420.52 km
Perigee altitude
417.383 km
Semi-major axis
6,797.088 km
Eccentricity
0.0002308
Inclination
51.6344°
RAAN
143.4433°
Arg. of periapsis
90.1375°
True anomaly
269.96135°
Mean anomaly
269.9878°
Eccentric anomaly
269.97458°
Mean motion
3.8731 °/min
BSTAR
0.00016025
Orbital period
92.95 mins
Loading maneuver chart data...
Loading SW <> Apogee altitude chart data...
Loading historical data...
Loading historical data...
Loading historical data...
Loading historical data...
Loading historical data...
Loading historical data...
Loading historical data...
Other satellites on launch #49 in the year 2025 (2025-03-14 UTC)

DRAGON ENDURANCE 4 Visibility forecast

Observer location: undefined°, undefined°

Span
Click to sort rows by Start time (UTC) header in descending order
Start Az.
Max El. time (UTC)
Max El. Az.
Max El.
End time (UTC)
End Az.
4 mins2025-05-09 09:38:04.630Z335.399° NNW2025-05-09 09:40:04.630Z46.811° ENE30.601°2025-05-09 09:42:04.630Z94.43° ESE
4 mins2025-05-09 11:15:04.630Z261.807° W2025-05-09 11:16:04.630Z236.168° WSW21.819°2025-05-09 11:19:04.630Z171.365° S
4 mins2025-05-10 03:57:04.630Z257.838° W2025-05-10 03:59:04.630Z346.826° N37.912°2025-05-10 04:01:04.630Z39.648° NE
|